Flight Track Log - Related Links

Times and Time Zones

All times are in EDT time to prevent confusion due to time zone crossing. See the DAL2033 flight status page for this flight to view local times or setup timezone preferences in your user account.

Time Position Orientation Groundspeed Altitude Reporting Facility
EDT Latitude Longitude Course Direction KTS MPH feet Rate Location/Type
Wed 04:16:33 PM 33.6456 -84.3731 14° North 445 512 2,400  Level Atlanta Center
Wed 04:17:33 PM 33.6686 -84.2983 70° East 350 403 4,000 2,571 Climbing Atlanta Center
Wed 04:18:32 PM 33.7333 -84.2833 11° North 273 314 7,500 3,097 Climbing Atlanta TRACON
Wed 04:19:37 PM 33.8333 -84.2833 360° North 285 328 10,400 2,022 Climbing Atlanta TRACON
Wed 04:20:00 PM 34.1029 -83.9659 11° North  Level Estimated
Wed 04:21:00 PM 34.1960 -83.8729 North  Level Estimated
Wed 04:21:33 PM 34.0153 -84.2794 North 343 395 13,600  Level Atlanta Center
Wed 04:22:00 PM 34.2890 -83.7797 14° North  Level Estimated
Wed 04:22:33 PM 34.1072 -84.2822 359° North 368 423 15,400  Level Atlanta Center
Wed 04:23:33 PM 34.2364 -84.2800 North 406 467 17,800 2,050 Climbing Atlanta Center
Wed 04:24:33 PM 34.3575 -84.2653 North 423 487 19,500 1,550 Climbing Atlanta Center
Wed 04:25:33 PM 34.4619 -84.2378 12° North 423 487 20,900 1,400 Climbing Atlanta Center
Wed 04:26:33 PM 34.5872 -84.2078 11° North 439 505 22,300 1,500 Climbing Atlanta Center
Wed 04:27:33 PM 34.7208 -84.1803 10° North 444 511 23,900 1,350 Climbing Atlanta Center
Wed 04:28:33 PM 34.8503 -84.1500 11° North 455 524 25,000 550 Climbing Atlanta Center
Wed 04:29:33 PM 34.9756 -84.1200 11° North 455 524 25,000 700 Level Atlanta Center
Wed 04:30:33 PM 35.1028 -84.0894 11° North 455 524 26,400 1,500 Climbing Atlanta Center
Wed 04:31:33 PM 35.2281 -84.0592 11° North 455 524 28,000 1,500 Climbing Atlanta Center
Wed 04:32:33 PM 35.3531 -84.0286 11° North 455 524 29,400 1,300 Climbing Atlanta Center
Wed 04:33:33 PM 35.4764 -83.9953 12° North 450 518 30,600 1,100 Climbing Atlanta Center
Wed 04:34:33 PM 35.6014 -83.9697 North 450 518 31,600 1,200 Climbing Atlanta Center
Wed 04:35:33 PM 35.7225 -83.9364 13° North 450 518 33,000 700 Climbing Atlanta Center
Wed 04:36:33 PM 35.8433 -83.9081 11° North 450 518 33,000  Level Atlanta Center
Wed 04:37:33 PM 35.9622 -83.8592 18° North 445 512 33,000  Level Atlanta Center
Wed 04:38:33 PM 36.0725 -83.7894 27° Northeast 445 512 33,000  Level Atlanta Center
Wed 04:39:20 PM 36.1597 -83.7303 29° Northeast 449 517 33,000  Level Indianapolis Center
Wed 04:40:22 PM 36.2717 -83.6592 27° Northeast 451 519 33,000  Level Indianapolis Center
Wed 04:41:24 PM 36.3822 -83.5894 27° Northeast 448 516 33,000  Level Indianapolis Center
Wed 04:42:26 PM 36.4903 -83.5186 28° Northeast 442 509 33,000  Level Indianapolis Center
Wed 04:43:28 PM 36.6064 -83.4472 26° Northeast 443 510 33,000  Level Indianapolis Center
Wed 04:44:30 PM 36.7083 -83.3589 35° Northeast 445 512 33,000  Level Indianapolis Center
Wed 04:45:32 PM 36.8072 -83.2667 37° Northeast 442 509 33,000  Level Indianapolis Center
Wed 04:46:34 PM 36.9256 -83.1550 37° Northeast 448 516 33,000  Level Indianapolis Center
Wed 04:47:36 PM 37.0278 -83.0586 37° Northeast 452 520 33,000  Level Indianapolis Center
Wed 04:48:39 PM 37.1294 -82.9614 37° Northeast 451 519 33,000  Level Indianapolis Center
Wed 04:49:41 PM 37.2303 -82.8644 37° Northeast 451 519 33,000  Level Indianapolis Center
Wed 04:50:43 PM 37.3303 -82.7669 38° Northeast 454 522 33,000  Level Indianapolis Center
Wed 04:51:45 PM 37.4325 -82.6689 37° Northeast 459 528 33,000  Level Indianapolis Center
Wed 04:52:47 PM 37.5347 -82.5714 37° Northeast 459 528 33,000  Level Indianapolis Center
Wed 04:53:49 PM 37.6517 -82.4572 38° Northeast 456 525 33,000  Level Indianapolis Center
Wed 04:54:51 PM 37.7528 -82.3597 37° Northeast 455 524 33,000  Level Indianapolis Center
Wed 04:55:53 PM 37.8517 -82.2617 38° Northeast 452 520 33,000  Level Indianapolis Center
Wed 04:56:55 PM 37.9561 -82.1606 37° Northeast 453 521 33,000  Level Indianapolis Center
Wed 04:57:57 PM 38.0578 -82.0611 38° Northeast 462 532 33,000  Level Indianapolis Center
Wed 04:58:59 PM 38.1569 -81.9619 38° Northeast 456 525 33,000  Level Indianapolis Center
Wed 05:00:01 PM 38.2564 -81.8622 38° Northeast 455 524 33,000  Level Indianapolis Center
Wed 05:01:03 PM 38.3547 -81.7611 39° Northeast 456 525 33,000  Level Indianapolis Center
Wed 05:02:05 PM 38.4572 -81.6164 48° Northeast 460 529 33,000  Level Indianapolis Center
Wed 05:03:07 PM 38.5406 -81.4944 49° Northeast 461 531 33,000  Level Indianapolis Center
Wed 05:04:09 PM 38.6256 -81.3731 48° Northeast 470 541 33,000  Level Indianapolis Center
Wed 05:05:12 PM 38.7097 -81.2525 48° Northeast 461 531 33,000  Level Indianapolis Center
Wed 05:06:14 PM 38.8108 -81.1069 48° Northeast 459 528 33,000  Level Indianapolis Center
Wed 05:07:16 PM 38.8967 -80.9817 49° Northeast 466 536 33,000  Level Indianapolis Center
Wed 05:08:18 PM 38.9822 -80.8572 48° Northeast 467 537 33,000  Level Indianapolis Center
Wed 05:09:20 PM 39.0686 -80.7339 48° Northeast 465 535 33,000  Level Indianapolis Center
Wed 05:10:22 PM 39.1567 -80.6114 47° Northeast 465 535 33,000  Level Indianapolis Center
Wed 05:11:24 PM 39.2447 -80.4892 47° Northeast 464 534 33,000  Level Indianapolis Center
Wed 05:12:26 PM 39.3503 -80.3406 47° Northeast 467 537 33,000  Level Indianapolis Center
Wed 05:13:28 PM 39.4386 -80.2153 48° Northeast 471 542 33,000  Level Indianapolis Center
Wed 05:14:27 PM 39.5156 -80.1114 46° Northeast 469 540 33,000 492 Level Cleveland Center
Wed 05:15:30 PM 39.6200 -79.9592 48° Northeast 474 545 34,000 816 Climbing Cleveland Center
Wed 05:16:32 PM 39.7047 -79.8325 49° Northeast 470 541 34,700 484 Climbing Cleveland Center
Wed 05:17:34 PM 39.7894 -79.7078 49° Northeast 466 536 35,000 145 Climbing Cleveland Center
Wed 05:18:36 PM 39.8725 -79.5839 49° Northeast 462 532 35,000  Level Cleveland Center
Wed 05:19:38 PM 39.9567 -79.4592 49° Northeast 461 531 35,000  Level Cleveland Center
Wed 05:20:40 PM 40.0556 -79.3094 49° Northeast 460 529 35,000  Level Cleveland Center
Wed 05:21:42 PM 40.1364 -79.1831 50° Northeast 458 527 35,000  Level Cleveland Center
Wed 05:22:44 PM 40.2189 -79.0583 49° Northeast 458 527 35,000  Level Cleveland Center
Wed 05:23:46 PM 40.3014 -78.9367 48° Northeast 454 522 35,000  Level Cleveland Center
Wed 05:24:48 PM 40.4000 -78.7892 49° Northeast 452 520 35,000  Level Cleveland Center
Wed 05:25:50 PM 40.4811 -78.6642 50° Northeast 455 524 35,000  Level Cleveland Center
Wed 05:26:52 PM 40.5650 -78.5394 48° Northeast 459 528 35,000  Level Cleveland Center
Wed 05:27:55 PM 40.6442 -78.4169 50° Northeast 452 520 35,000  Level Cleveland Center
Wed 05:28:57 PM 40.7236 -78.2967 49° Northeast 444 511 35,000  Level Cleveland Center
Wed 05:29:59 PM 40.8169 -78.1508 50° Northeast 441 507 35,000  Level Cleveland Center
Wed 05:31:01 PM 40.8961 -78.0281 50° Northeast 444 511 35,000  Level Cleveland Center
Wed 05:32:03 PM 40.9767 -77.9069 49° Northeast 446 513 35,000  Level Cleveland Center
Wed 05:33:05 PM 41.0597 -77.7886 47° Northeast 445 512 35,000 -774 Level Cleveland Center
Wed 05:34:07 PM 41.1558 -77.6444 48° Northeast 439 505 33,400 -968 Descending Cleveland Center
Wed 05:35:09 PM 41.2375 -77.5261 47° Northeast 440 506 33,000 -677 Descending Cleveland Center
Wed 05:36:11 PM 41.3178 -77.4078 48° Northeast 436 502 32,000 -1,258 Descending Cleveland Center
Wed 05:37:13 PM 41.3967 -77.2889 48° Northeast 434 499 30,400 -1,452 Descending Cleveland Center
Wed 05:38:15 PM 41.4956 -77.1431 48° Northeast 443 510 29,000 -672 Descending Cleveland Center
Wed 05:39:18 PM 41.5761 -77.0203 49° Northeast 441 507 29,000 -851 Level Cleveland Center
Wed 05:40:29 PM 41.6794 -76.8672 48° Northeast 445 512 27,100 -1,511 Descending New York Center
Wed 05:41:29 PM 41.7628 -76.7442 48° Northeast 445 512 25,700 -1,339 Descending New York Center
Wed 05:42:30 PM 41.8417 -76.6231 49° Northeast 445 512 24,400 -567 Descending New York Center
Wed 05:44:29 PM 41.9981 -76.3850 48° Northeast 431 496 24,000 -134 Descending Boston Center
Wed 05:45:29 PM 42.0753 -76.2669 49° Northeast 426 490 24,000  Level Boston Center
Wed 05:46:29 PM 42.1544 -76.1456 49° Northeast 426 490 24,000  Level Boston Center
Wed 05:47:27 PM 42.2089 -76.0031 63° Northeast 426 490 24,000  Level Boston Center
Wed 05:48:27 PM 42.2572 -75.8569 66° East 421 484 24,000  Level Boston Center
Wed 05:49:28 PM 42.3094 -75.7083 65° Northeast 426 490 24,000  Level Boston Center
Wed 05:50:29 PM 42.3556 -75.5589 67° East 426 490 24,000  Level Boston Center
Wed 05:51:27 PM 42.3908 -75.4033 73° East 431 496 24,000 -661 Level Boston Center
Wed 05:52:27 PM 42.4261 -75.2472 73° East 431 496 22,700 -1,835 Descending Boston Center
Wed 05:53:28 PM 42.4586 -75.1053 73° East 425 489 20,300 -2,361 Descending Boston Center
Wed 05:54:29 PM 42.4911 -74.9603 73° East 406 467 17,900 -2,357 Descending Boston Center
Wed 05:55:20 PM 42.5147 -74.8344 76° East 383 441 15,900 -2,381 Descending Boston Center
Wed 05:55:32 PM 42.5236 -74.8067 67° East 381 438 15,400 -2,418 Descending Boston Center
Wed 05:56:27 PM 42.5492 -74.6892 74° East 374 430 13,200 -2,361 Descending Boston Center
Wed 05:56:33 PM 42.5536 -74.6753 67° East 368 423 13,000 -2,000 Descending Boston Center
Wed 05:57:27 PM 42.5767 -74.5575 75° East 368 423 11,200 -1,810 Descending Boston Center
Wed 05:57:36 PM 42.5808 -74.5464 63° Northeast 357 411 11,100 -514 Descending Boston Center
Wed 05:58:37 PM 42.6081 -74.4261 73° East 327 376 10,600 -911 Descending Boston Center
Wed 05:59:28 PM 42.6286 -74.3308 74° East 308 354 9,400 -1,400 Descending Boston Center
Wed 05:59:37 PM 42.6308 -74.3194 75° East 281 323 9,200 -1,672 Descending Boston Center
Wed 06:00:29 PM 42.6511 -74.2297 73° East 287 330 7,700 -1,574 Descending Boston Center
Wed 06:00:38 PM 42.6533 -74.2158 78° East 280 322 7,600 -1,655 Descending Boston Center
Wed 06:01:27 PM 42.6733 -74.1258 73° East 279 321 6,100 -1,672 Descending Boston Center
Wed 06:01:39 PM 42.6756 -74.1175 70° East 282 325 5,900 -1,672 Descending Boston Center
Wed 06:02:28 PM 42.7078 -74.0506 57° Northeast 279 321 4,400 -2,172 Descending Boston Center
Wed 06:02:37 PM 42.7228 -74.0256 51° Northeast 266 306 3,800 -1,400 Descending Boston Center
Wed 06:03:28 PM 42.7567 -73.9783 46° Northeast 264 304 3,000 -938 Descending Boston Center
Wed 06:03:41 PM 42.7653 -73.9617 55° Northeast 225 259 2,800 -102 Descending Boston Center
Wed 06:04:27 PM 42.7933 -73.8886 62° Northeast 255 293 2,900 -1,034 Climbing Boston Center
Wed 06:04:39 PM 42.8014 -73.9058 303° West 176 203 1,800 -1,250 Descending Boston Center
Wed 06:05:39 PM 42.8189 -73.8442 69° East 154 177 1,400 -397 Descending Boston Center
Wed 06:06:40 PM 42.7964 -73.8097 132° Southeast 123 142 1,000 -496 Descending Boston Center
Wed 06:07:40 PM 42.7631 -73.8089 179° South 123 142 400 -600 Descending Boston Center

Login

Don't have an account? Register now (free) for customized features, flight alerts, and more!